Simultaneous Nadir Overpasses (SNOs) Predictions

Prediction of SNOs between GOES-15 and TERRA Satellite Orbit:

Table of predicted SNOs for the next 14.0 days since TLE Epoch: 11/4/2023
Index Date Time (GOES-15) GOES-15 Lat,Lon TERRA Lat,Lon Distance(km) Time Diff (sec)
1 11/04/2023 05:29:13 -0.28, 62.82 -1.15, 67.04 479.44 80
2 11/04/2023 17:52:09 0.28, 62.73 0.15, 62.11 69.95 80
3 11/06/2023 17:32:53 0.27, 61.97 1.15, 66.10 469.40 80
4 11/07/2023 05:55:41 -0.27, 61.67 -0.19, 61.19 53.33 80
5 11/09/2023 05:36:24 -0.27, 60.90 -1.15, 65.19 486.65 80
6 11/09/2023 17:59:18 0.26, 60.80 0.13, 60.26 61.86 80
7 11/11/2023 17:40:01 0.26, 60.05 1.13, 64.25 477.17 80
8 11/12/2023 06:02:49 -0.26, 59.76 -0.17, 59.35 46.53 80
9 11/14/2023 05:43:31 -0.26, 59.01 -1.14, 63.35 492.35 80
10 11/14/2023 18:06:26 0.25, 58.91 0.14, 58.42 55.55 80
11 11/16/2023 17:47:08 0.25, 58.17 1.15, 62.41 481.76 80
12 11/17/2023 06:09:55 -0.24, 57.90 -0.14, 57.52 43.34 80
